Change the Weather History Date:

Friday, March 15, 2013

  Actual Average Record
Temperature  
Mean Temperature 42 °F -  
Max Temperature 48 °F 53 °F 64 °F (2014)
Min Temperature 37 °F 40 °F 33 °F (2006)
Degree Days  
Heating Degree Days 22    
Moisture  
Dew Point 38 °F    
Average Humidity 81    
Maximum Humidity 93    
Minimum Humidity 61    
Precipitation  
Precipitation 0.08 in - - ()
Sea Level Pressure  
Sea Level Pressure 29.73 in    
Wind  
Wind Speed 10 mph ()    
Max Wind Speed 20 mph    
Max Gust Speed -    
Visibility 6.7 miles    
Events Rain    
Averages and records for this station are not official NWS values.
T = Trace of Precipitation, MM = Missing Value Source: Averaged Metar Reports

Daily Weather History Graph

Daily Weather History Graph

Search for Another Location

Airport or City:

Trip Planner

Search our weather history database for the weather conditions in past years. The results will help you decide how hot, cold, wet, or windy it might be!

Date:

Astronomy

Mar. 15, 2013 Rise Set
Actual Time 6:15 AM GMT 6:06 PM GMT
Civil Twilight 5:42 AM GMT 6:39 PM GMT
Nautical Twilight 5:03 AM GMT 7:18 PM GMT
Astronomical Twilight 4:23 AM GMT 7:59 PM GMT
Moon 7:27 AM GMT (3/15) 10:39 PM GMT (3/15)
Length of Visible Light 12h 57m
Length of Day
11h 50m
Waxing Crescent, 14% of the Moon is Illuminated
Mar 15
Waxing Crescent
Mar 19
First Quarter
Mar 27
Full
Apr 3
Last Quarter
Apr 10
New

Hourly Weather History & Observations

Time (GMT) Temp. Windchill Dew Point Humidity Pressure Visibility Wind Dir Wind Speed Gust Speed Precip Events Conditions
12:20 AM 37.4 °F 31.4 °F 26.6 °F 65% 29.92 in - SW 8.1 mph - N/A   Clear
12:50 AM 37.4 °F 32.8 °F 26.6 °F 65% 29.92 in 6.2 mi SSW 5.8 mph - N/A   Partly Cloudy
1:20 AM 37.4 °F 32.8 °F 26.6 °F 65% 29.92 in 6.2 mi SSW 5.8 mph - N/A   Partly Cloudy
1:50 AM 37.4 °F 32.1 °F 28.4 °F 70% 29.89 in 6.2 mi SSW 6.9 mph - N/A   Mostly Cloudy
2:20 AM 37.4 °F 31.4 °F 28.4 °F 70% 29.89 in 6.2 mi South 8.1 mph - N/A   Mostly Cloudy
2:50 AM 37 °F - 29 °F 64% 29.88 in 17 mi SSW 8.1 mph - -   Mostly Cloudy
2:50 AM 37.4 °F 31.4 °F 28.4 °F 70% 29.86 in 6.2 mi SSW 8.1 mph - N/A   Scattered Clouds
3:20 AM 37.4 °F 30.8 °F 28.4 °F 70% 29.86 in 6.2 mi SSW 9.2 mph - N/A   Partly Cloudy
3:50 AM 37.4 °F 31.4 °F 30.2 °F 75% 29.86 in 6.2 mi SSW 8.1 mph - N/A   Partly Cloudy
4:20 AM 37.4 °F 31.4 °F 30.2 °F 75% 29.83 in 6.2 mi SSW 8.1 mph - N/A Rain Light Rain
4:50 AM 37.4 °F 31.4 °F 32.0 °F 81% 29.83 in 6.2 mi SSW 8.1 mph - N/A   Scattered Clouds
5:20 AM 37.4 °F 30.8 °F 32.0 °F 81% 29.83 in 6.2 mi SSW 9.2 mph - N/A Rain Light Rain
5:50 AM 38 °F - 36 °F 87% 29.83 in 4 mi SW 9.2 mph - - Rain Rain Showers
5:50 AM 37.4 °F 31.4 °F 33.8 °F 87% 29.83 in 6.2 mi SW 8.1 mph - N/A Rain Light Rain
6:20 AM 37.4 °F 30.8 °F 35.6 °F 93% 29.80 in 6.2 mi South 9.2 mph - N/A Rain Light Rain
6:50 AM 39.2 °F 33.0 °F 35.6 °F 87% 29.80 in 6.2 mi SSW 9.2 mph - N/A Rain Light Rain
7:20 AM 39.2 °F 33.0 °F 37.4 °F 93% 29.80 in 6.2 mi SSW 9.2 mph - N/A Rain Light Rain
7:50 AM 41.0 °F 35.2 °F 37.4 °F 87% 29.80 in 6.2 mi SSW 9.2 mph - N/A   Scattered Clouds
8:20 AM 41.0 °F 34.7 °F 37.4 °F 87% 29.80 in 6.2 mi SSW 10.4 mph - N/A   Scattered Clouds
8:50 AM 43 °F - 39 °F 82% 29.80 in 19 mi SSW 12.7 mph - -   Scattered Clouds
8:50 AM 42.8 °F 36.6 °F 39.2 °F 87% 29.80 in 6.2 mi SSW 11.5 mph - N/A   Scattered Clouds
9:20 AM 44.6 °F 38.4 °F 39.2 °F 81% 29.77 in 6.2 mi SSW 12.7 mph - N/A   Scattered Clouds
9:50 AM 44.6 °F 38.4 °F 39.2 °F 81% 29.77 in 6.2 mi SSW 12.7 mph - N/A   Mostly Cloudy
10:20 AM 46.4 °F 40.7 °F 39.2 °F 76% 29.77 in 6.2 mi SSW 12.7 mph - N/A   Mostly Cloudy
10:50 AM 46.4 °F 40.1 °F 39.2 °F 76% 29.77 in 6.2 mi SSW 15.0 mph - N/A   Mostly Cloudy
11:20 AM 46.4 °F 39.8 °F 39.2 °F 76% 29.74 in 6.2 mi SSW 16.1 mph - N/A   Scattered Clouds
11:50 AM 49 °F - 40 °F 61% 29.74 in 22 mi SSW 17.3 mph - -   Scattered Clouds
11:50 AM 48.2 °F - 39.2 °F 71% 29.74 in 6.2 mi SSW 15.0 mph - N/A   Scattered Clouds
12:20 PM 44.6 °F 38.1 °F 41.0 °F 87% 29.74 in 6.2 mi SSW 13.8 mph - N/A Rain Light Rain Showers
12:50 PM 46.4 °F 40.1 °F 41.0 °F 81% 29.71 in 6.2 mi SSW 15.0 mph - N/A   Mostly Cloudy
1:20 PM 48.2 °F - 41.0 °F 76% 29.71 in 6.2 mi SW 16.1 mph - N/A   Mostly Cloudy
1:50 PM 48.2 °F - 41.0 °F 76% 29.68 in 6.2 mi SSW 16.1 mph - N/A   Mostly Cloudy
2:20 PM 48.2 °F - 41.0 °F 76% 29.68 in 6.2 mi SSW 16.1 mph - N/A   Mostly Cloudy
2:50 PM 47 °F - 41 °F 74% 29.68 in 5 mi SSW 19.6 mph - - Rain Light Rain Showers
2:50 PM 48.2 °F - 41.0 °F 76% 29.68 in 6.2 mi SSW 16.1 mph - N/A Rain Light Rain
3:20 PM 46.4 °F 39.5 °F 39.2 °F 76% 29.65 in 6.2 mi SSW 17.3 mph - N/A   Mostly Cloudy
3:50 PM 44.6 °F 37.2 °F 41.0 °F 87% 29.65 in 6.2 mi South 17.3 mph - N/A Rain Light Rain
4:20 PM 46.4 °F 39.8 °F 41.0 °F 81% 29.65 in 6.2 mi SSW 16.1 mph - N/A   Mostly Cloudy
4:50 PM 46.4 °F 39.8 °F 41.0 °F 81% 29.65 in 6.2 mi SSW 16.1 mph - N/A Rain Light Rain
5:20 PM 44.6 °F 37.8 °F 41.0 °F 87% 29.65 in 6.2 mi SSW 15.0 mph - N/A Rain Rain
5:50 PM 45 °F - 42 °F 86% 29.65 in 6 mi SSW 15.0 mph - - Rain Light Rain
5:50 PM 44.6 °F 38.1 °F 41.0 °F 87% 29.65 in 5.6 mi SSW 13.8 mph - N/A Rain Light Rain
6:20 PM 44.6 °F 37.4 °F 41.0 °F 87% 29.65 in 5.6 mi SSW 16.1 mph - N/A Rain Light Rain
6:50 PM 44.6 °F 37.8 °F 41.0 °F 87% 29.62 in 6.2 mi SSW 15.0 mph - N/A Rain Light Rain
7:20 PM 44.6 °F 38.4 °F 41.0 °F 87% 29.62 in 6.2 mi SSW 12.7 mph - N/A Rain Light Rain
7:50 PM 42.8 °F 36.2 °F 41.0 °F 93% 29.62 in 5.6 mi SSW 12.7 mph - N/A Rain Light Rain
8:20 PM 44.6 °F 38.1 °F 41.0 °F 87% 29.62 in 6.2 mi SSW 13.8 mph - N/A Rain Light Rain
8:50 PM 44 °F - 42 °F 89% 29.62 in 8 mi South 15.0 mph - - Rain Light Rain
8:50 PM 44.6 °F 38.4 °F 41.0 °F 87% 29.59 in 6.2 mi SSW 12.7 mph - N/A Rain Light Rain
9:20 PM 44.6 °F 37.8 °F 41.0 °F 87% 29.59 in 6.2 mi South 15.0 mph - N/A Rain Light Rain
9:50 PM 44.6 °F 37.4 °F 41.0 °F 87% 29.59 in 6.2 mi South 16.1 mph - N/A Rain Light Rain
10:20 PM 44.6 °F 37.8 °F 41.0 °F 87% 29.56 in 6.2 mi SSW 15.0 mph - N/A Rain Light Rain
10:50 PM 44.6 °F 37.4 °F 41.0 °F 87% 29.56 in 6.2 mi SSW 16.1 mph - N/A Rain Light Rain
11:20 PM 44.6 °F 36.9 °F 41.0 °F 87% 29.56 in 5.6 mi SSW 18.4 mph - N/A Rain Light Rain
11:50 PM 45 °F - 42 °F 86% 29.57 in 12 mi South 17.3 mph - - Rain Light Rain Showers
11:50 PM 44.6 °F 37.2 °F 41.0 °F 87% 29.56 in 6.2 mi SSW 17.3 mph - N/A   Scattered Clouds